Overview Statistics Trail Chart Weather Telemetry Raw packets
 

This is the latest recevied weather packets stored in our database for station/object SV7GBF-2. If no packets are shown the sender has not sent any weather packets the latest 10 day(s).

<< 6 7 8 9 10 11 12 >>
Time Temp. Humidity Pressure Rain* Wind** Luminosity Snow
1788528845 32.78° C 10% 1015 hPa - - - -
1788528245 31.67° C 13% 1015 hPa - - - -
1788526447 32.22° C 12% 1015 hPa - - - -
1788525846 32.22° C 12% 1015 hPa - - - -
1788525245 32.78° C 7% 1015 hPa - - - -
1788524645 32.78° C 7% 1015 hPa - - - -
1788524049 32.22° C 7% 1015 hPa - - - -
1788523445 32.22° C 7% 1015 hPa - - - -
1788522847 32.22° C 7% 1015 hPa - - - -
1788521645 31.67° C 8% 1015 hPa - - - -
1788521047 31.11° C 10% 1015 hPa - - - -
1788519848 31.67° C 7% 1015 hPa - - - -
1788519245 32.22° C 7% 1015 hPa - - - -
1788518646 32.22° C 7% 1015 hPa - - - -
1788516846 31.11° C 8% 1015 hPa - - - -
1788516245 30.56° C 8% 1015 hPa - - - -
1788515046 29.44° C 16% 1015 hPa - - - -
1788513246 28.89° C 18% 1016 hPa - - - -
1788512045 28.33° C 19% 1016 hPa - - - -
1788510245 27.78° C 21% 1016 hPa - - - -
1788509045 27.78° C 24% 1016 hPa - - - -
1788508447 27.78° C 25% 1016 hPa - - - -
1788506049 26.11° C 33% 1016 hPa - - - -
1788505445 26.11° C 40% 1015 hPa - - - -
1788503645 24.44° C 62% 1015 hPa - - - -

* Rain since midnight (hover to see other rain measurements)
** Current wind speed in m/s (hover to see current wind gust speed)